FW1225 Weather Reports


Display with metric or nautical units.
time (UTC)temp
F
wind
direction
speed
MPH
gust
MPH
rain 1hr
in
rain 24hr
in
rain mn
in
humidity
%
barometer
mb
20210921151344 76 154 3.0 5.0 0.00 0.00 0.00 88 993.4
20210921150024 76 115 2.0 6.0 0.00 0.00 0.00 90 993.4
20210921145345 76 152 3.0 6.0 0.00 0.00 0.00 90 993.5
20210921144704 74 173 3.0 6.0 0.00 0.00 0.00 92 993.4
20210921144024 74 108 3.0 7.0 0.00 0.00 0.00 93 993.4
20210921143344 74 155 2.0 7.0 0.00 0.00 0.00 94 993.2
20210921142024 74 126 3.0 4.0 0.00 0.00 0.00 95 993.2
20210921141344 73 150 2.0 3.0 0.00 0.00 0.00 95 993.1
20210921140704 73 199 2.0 4.0 0.00 0.00 0.00 95 993.1
20210921125344 73 96 4.0 8.0 0.00 0.00 0.00 95 992.6
20210921124024 72 93 3.0 7.0 0.00 0.00 0.00 98 992.6
20210921122024 71 144 1.0 4.0 0.00 0.00 0.00 100 992.3
20210921121344 71 79 0.0 1.0 0.00 0.00 0.00 100 992.3
20210921120024 71 154 0.0 2.0 0.00 0.00 0.00 100 992.3
20210921115345 70 91 1.0 2.0 0.00 0.00 0.00 100 992.2
20210921110024 71 120 1.0 3.0 0.00 0.00 0.00 100 991.9
20210921104704 71 153 0.0 4.0 0.00 0.00 0.00 100 991.9
20210921104024 71 128 2.0 4.0 0.00 0.00 0.00 100 991.8
20210921102704 71 114 2.0 4.0 0.00 0.00 0.00 100 991.7
20210921102024 71 173 1.0 5.0 0.00 0.00 0.00 99 991.6
20210921101344 71 133 1.0 5.0 0.00 0.00 0.00 99 991.5
20210921100704 71 222 0.0 3.0 0.00 0.00 0.00 99 991.4
20210921100024 71 197 1.0 3.0 0.00 0.00 0.00 99 991.4
20210921095344 71 198 0.0 3.0 0.00 0.00 0.00 98 991.5
20210921094704 72 156 1.0 6.0 0.00 0.00 0.00 99 991.4
20210921093344 72 111 2.0 4.0 0.00 0.00 0.00 98 991.4
20210921092024 72 125 1.0 2.0 0.00 0.00 0.00 99 991.1
20210921090705 72 147 1.0 3.0 0.00 0.00 0.00 98 991.1
20210921085344 72 133 2.0 3.0 0.00 0.00 0.00 98 991.1
20210921084704 72 172 1.0 3.0 0.00 0.00 0.00 98 991.1
20210921083345 72 128 1.0 3.0 0.00 0.00 0.00 98 991.3
20210921082704 72 103 2.0 3.0 0.00 0.00 0.00 98 991.2
20210921080705 72 181 0.0 3.0 0.00 0.00 0.00 97 991.1
20210921074704 72 118 1.0 3.0 0.00 0.00 0.00 97 991.1
20210921074024 72 163 0.0 3.0 0.00 0.00 0.00 97 991.0
20210921073344 72 142 2.0 3.0 0.00 0.00 0.00 97 991.1
20210921072024 72 158 1.0 4.0 0.00 0.00 0.00 97 991.1
20210921071344 72 172 0.0 3.0 0.00 0.00 0.00 97 991.1
20210921065344 72 125 1.0 5.0 0.00 0.00 0.00 97 990.9
20210921064704 72 134 1.0 5.0 0.00 0.00 0.00 97 990.9
20210921064024 72 116 3.0 5.0 0.00 0.00 0.00 97 990.9
20210921062704 72 150 2.0 4.0 0.00 0.00 0.00 97 990.9
20210921062024 72 32 0.0 4.0 0.00 0.00 0.00 96 990.9
20210921060705 72 123 1.0 4.0 0.00 0.00 0.00 96 990.9
20210921053344 72 135 2.0 3.0 0.00 0.00 0.00 96 990.9
20210921051344 72 123 3.0 7.0 0.00 0.00 0.00 95 990.8
20210921045344 72 172 3.0 5.0 0.00 0.00 0.33 96 991.1
20210921042704 72 164 3.0 10.0 0.00 0.00 0.33 95 990.9
20210921040704 72 147 2.0 6.0 0.00 0.00 0.33 94 991.0
20210921040024 72 148 3.0 7.0 0.00 0.00 0.33 94 991.0
20210921035344 72 101 4.0 7.0 0.00 0.00 0.33 94 991.0
20210921034704 72 110 4.0 7.0 0.00 0.00 0.33 94 991.0
20210921034024 72 136 3.0 11.0 0.00 0.00 0.33 93 990.9
20210921032704 71 151 3.0 10.0 0.00 0.00 0.33 94 990.9
20210921030024 71 193 2.0 6.0 0.00 0.00 0.33 94 991.2
20210921024024 71 140 3.0 10.0 0.00 0.00 0.33 93 991.3
20210921023344 71 119 4.0 10.0 0.00 0.00 0.33 92 991.3
20210921022024 71 178 3.0 7.0 0.00 0.00 0.33 93 991.4
20210921021344 71 157 4.0 7.0 0.00 0.00 0.33 93 991.4
20210921020704 71 119 3.0 6.0 0.00 0.00 0.33 93 991.4
20210921014704 71 132 4.0 11.0 0.00 0.00 0.33 92 991.4
20210921014024 71 130 4.0 11.0 0.00 0.00 0.33 92 991.4
20210921013344 71 114 5.0 8.0 0.00 0.00 0.33 92 991.5
20210921010704 71 146 2.0 11.0 0.00 0.00 0.33 92 991.3
20210921005344 71 112 5.0 10.0 0.00 0.00 0.33 91 991.0
20210921004025 71 133 5.0 13.0 0.00 0.00 0.33 91 991.0
20210921002024 71 119 4.0 9.0 0.00 0.00 0.33 91 990.8
20210921000704 72 132 3.0 7.0 0.00 0.00 0.33 92 990.8
20210921000025 72 114 4.0 10.0 0.00 0.00 0.33 91 990.9
20210920234704 72 153 4.0 12.0 0.00 0.00 0.33 91 990.9
20210920234024 72 128 5.0 13.0 0.00 0.00 0.33 91 990.7
20210920232704 72 178 3.0 8.0 0.00 0.00 0.33 92 990.5
20210920230704 73 109 4.0 10.0 0.00 0.00 0.33 90 990.2
20210920225344 73 144 3.0 10.0 0.00 0.00 0.33 89 990.5
20210920224024 74 77 5.0 9.0 0.00 0.00 0.33 86 990.5
20210920223344 74 112 4.0 16.0 0.00 0.00 0.33 87 990.7
20210920222705 74 116 6.0 16.0 0.00 0.00 0.33 86 990.7
20210920222024 74 100 5.0 12.0 0.00 0.00 0.33 85 990.5
20210920221345 74 122 5.0 15.0 0.00 0.00 0.33 85 990.5
20210920220704 75 104 5.0 15.0 0.00 0.00 0.33 84 990.4
20210920220024 75 105 5.0 17.0 0.00 0.00 0.33 85 990.3
20210920215344 75 97 5.0 10.0 0.00 0.00 0.33 85 990.4
20210920214704 75 97 5.0 12.0 0.00 0.00 0.33 86 990.3
20210920213345 75 119 5.0 10.0 0.00 0.00 0.33 86 990.2
20210920211344 75 81 5.0 12.0 0.00 0.00 0.33 88 989.9
20210920210704 76 81 5.0 12.0 0.00 0.00 0.33 87 990.1
20210920210024 75 72 7.0 12.0 0.00 0.00 0.33 87 990.1
20210920204704 77 63 6.0 12.0 0.00 0.00 0.33 83 990.0
20210920202704 81 126 4.0 9.0 0.00 0.00 0.33 77 989.9
20210920202024 79 147 2.0 10.0 0.00 0.00 0.33 82 989.9
20210920195344 79 114 5.0 10.0 0.00 0.00 0.33 80 990.2
20210920194024 81 112 4.0 10.0 0.00 0.00 0.33 76 990.3
20210920192704 80 180 1.0 9.0 0.00 0.00 0.33 83 990.4
20210920192024 81 103 5.0 9.0 0.00 0.00 0.33 78 990.5
20210920191344 82 115 3.0 6.0 0.00 0.00 0.33 81 990.3
20210920190704 80 132 3.0 6.0 0.00 0.00 0.33 83 990.5
20210920185344 79 169 2.0 5.0 0.00 0.00 0.33 88 990.7
20210920184024 77 176 2.0 4.0 0.00 0.00 0.33 93 990.9
20210920183344 77 153 1.0 4.0 0.00 0.00 0.33 91 991.1
20210920182024 80 152 1.0 9.0 0.00 0.00 0.33 86 991.4
20210920180024 80 137 2.0 8.0 0.00 0.00 0.33 86 991.4
20210920175344 79 93 2.0 8.0 0.00 0.00 0.33 90 991.5
20210920174704 77 95 5.0 8.0 0.00 0.00 0.33 90 991.6
20210920174024 76 115 4.0 8.0 0.00 0.00 0.33 92 991.6
20210920173344 76 119 3.0 11.0 0.00 0.00 0.33 93 991.6
20210920172024 78 98 6.0 9.0 0.00 0.00 0.33 82 991.7
20210920170704 77 110 5.0 8.0 0.00 0.00 0.33 87 991.6
20210920164704 75 184 2.0 8.0 0.00 0.00 0.33 93 991.7
20210920163344 77 113 5.0 8.0 0.00 0.00 0.33 88 991.8
20210920162704 78 151 2.0 11.0 0.00 0.00 0.33 89 991.8
20210920160024 75 94 3.0 6.0 0.00 0.00 0.33 94 992.0
20210920155344 76 113 3.0 6.0 0.00 0.00 0.33 99 991.9
20210920154704 75 163 0.0 7.0 0.00 0.00 0.33 100 992.0
20210920154024 75 95 3.0 7.0 0.00 0.00 0.33 100 992.1
20210920153344 75 136 1.0 6.0 0.00 0.00 0.33 100 992.1